TimeCST,TemperatureF,Dew PointF,Humidity,Sea Level PressureIn,VisibilityMPH,Wind Direction,Wind SpeedMPH,Gust SpeedMPH,PrecipitationIn,Events,Conditions,WindDirDegrees,DateUTC
12:53 AM,28.9,21.9,75,30.42,10.0,North,6.9,-,N/A,,Overcast,10,2013-12-23 06:53:00
1:53 AM,28.9,21.9,75,30.42,10.0,North,10.4,-,N/A,,Overcast,350,2013-12-23 07:53:00
2:53 AM,28.9,21.0,72,30.41,10.0,NE,6.9,-,N/A,,Overcast,40,2013-12-23 08:53:00
3:53 AM,28.0,21.0,75,30.42,10.0,NNE,5.8,-,N/A,,Overcast,30,2013-12-23 09:53:00
4:53 AM,28.9,21.9,75,30.43,10.0,Variable,3.5,-,N/A,,Overcast,0,2013-12-23 10:53:00
5:53 AM,28.0,21.9,78,30.45,10.0,NNE,3.5,-,N/A,,Overcast,30,2013-12-23 11:53:00
6:53 AM,28.0,21.9,78,30.49,10.0,NNW,5.8,-,N/A,,Overcast,330,2013-12-23 12:53:00
7:50 AM,28.4,21.2,74,30.48,10.0,NNE,9.2,-,N/A,,Overcast,20,2013-12-23 13:50:00
7:53 AM,28.0,21.9,78,30.51,10.0,NNE,8.1,-,N/A,,Overcast,30,2013-12-23 13:53:00
8:53 AM,28.0,21.9,78,30.53,10.0,North,6.9,-,N/A,,Overcast,10,2013-12-23 14:53:00
9:53 AM,28.9,21.9,75,30.57,10.0,North,8.1,-,N/A,,Overcast,360,2013-12-23 15:53:00
10:53 AM,28.9,21.9,75,30.58,10.0,North,8.1,-,N/A,,Overcast,350,2013-12-23 16:53:00
11:53 AM,32.0,23.0,69,30.56,10.0,NNE,8.1,-,N/A,,Overcast,30,2013-12-23 17:53:00
12:53 PM,32.0,23.0,69,30.53,10.0,NE,5.8,-,N/A,,Mostly Cloudy,40,2013-12-23 18:53:00
1:15 PM,33.8,23.0,65,30.51,10.0,North,6.9,-,N/A,,Scattered Clouds,10,2013-12-23 19:15:00
1:53 PM,34.0,23.0,64,30.53,10.0,NNE,9.2,-,N/A,,Scattered Clouds,20,2013-12-23 19:53:00
2:24 PM,33.8,23.0,65,30.51,10.0,NNE,11.5,-,N/A,,Mostly Cloudy,20,2013-12-23 20:24:00
2:53 PM,30.9,23.0,72,30.55,10.0,NNW,10.4,-,N/A,,Overcast,340,2013-12-23 20:53:00
3:53 PM,30.0,21.9,72,30.56,10.0,North,9.2,-,N/A,,Overcast,360,2013-12-23 21:53:00
4:53 PM,28.9,21.9,75,30.57,10.0,North,8.1,-,N/A,,Overcast,10,2013-12-23 22:53:00
5:53 PM,30.0,21.9,72,30.58,10.0,North,8.1,-,N/A,,Overcast,360,2013-12-23 23:53:00
6:53 PM,28.9,21.9,75,30.59,10.0,North,8.1,-,N/A,,Overcast,360,2013-12-24 00:53:00
7:53 PM,28.0,21.9,78,30.61,10.0,North,9.2,-,N/A,,Overcast,10,2013-12-24 01:53:00
8:35 PM,26.6,21.2,80,30.58,10.0,North,6.9,-,N/A,,Overcast,10,2013-12-24 02:35:00
8:53 PM,27.0,21.0,78,30.61,10.0,NNE,6.9,-,N/A,,Overcast,20,2013-12-24 02:53:00
9:12 PM,26.6,19.4,74,30.58,10.0,North,4.6,-,N/A,,Mostly Cloudy,360,2013-12-24 03:12:00
9:53 PM,25.0,19.9,81,30.61,10.0,North,4.6,-,N/A,,Partly Cloudy,350,2013-12-24 03:53:00
10:53 PM,24.1,19.0,81,30.61,10.0,North,3.5,-,N/A,,Clear,350,2013-12-24 04:53:00
11:53 PM,23.0,19.0,85,30.60,9.0,NNW,3.5,-,N/A,,Scattered Clouds,340,2013-12-24 05:53:00